Volver al catálogo

COSMOS 397 DEB

ActivoLEO
NORAD 6844·DEBRIS·🇷🇺 Russia

Lanzado Feb 25, 1971 desde Baikonur Cosmodrome

Loading…

Próximos Pases (próximas 24 horas)

TLE

ActualizadoSource: Space-Track

Época: Sep 14, 2026, 05:21 UTC

1 06844U 71015CL  26257.22345711  .00001233  00000-0  34571-3 0  9995
2 06844  65.8985 347.7206 0550648  67.8354 298.0194 13.86018105632912

Sigue COSMOS 397 DEB en tiempo real con AllMySat

Download on the App Store